| time (UTC) | temp F | wind direction | speed MPH | gust MPH | rain 1hr in | rain 24hr in | rain mn in | humidity % | barometer mb |
| 20260507043043 | 65 | 22 | 20.0 | 31.0 | 0.00 | 0.00 | 0.00 | 72 | 1017.9 |
| 20260507041515 | 65 | 7 | 17.0 | 37.0 | 0.00 | 0.00 | 0.00 | 74 | 1018.1 |
| 20260507040044 | 65 | 69 | 17.0 | 32.0 | 0.00 | 0.00 | 0.00 | 74 | 1018.3 |
| 20260507034605 | 65 | 28 | 18.0 | 31.0 | 0.00 | 0.00 | 0.00 | 74 | 1018.4 |
| 20260507033044 | 65 | 36 | 21.0 | 30.0 | 0.00 | 0.00 | 0.00 | 73 | 1018.3 |
| 20260507031554 | 65 | 19 | 19.0 | 31.0 | 0.00 | 0.00 | 0.00 | 73 | 1018.4 |
| 20260507030019 | 65 | 90 | 18.0 | 27.0 | 0.00 | 0.00 | 0.00 | 73 | 1018.5 |
| 20260507024559 | 65 | 27 | 18.0 | 31.0 | 0.00 | 0.00 | 0.00 | 73 | 1018.5 |
| 20260507023025 | 64 | 73 | 11.0 | 26.0 | 0.00 | 0.00 | 0.00 | 76 | 1018.8 |
| 20260507021502 | 64 | 14 | 14.0 | 23.0 | 0.00 | 0.00 | 0.00 | 75 | 1018.9 |
| 20260507020109 | 65 | 36 | 14.0 | 22.0 | 0.00 | 0.00 | 0.00 | 75 | 1019.0 |
| 20260507014530 | 65 | 52 | 12.0 | 25.0 | 0.00 | 0.00 | 0.00 | 74 | 1018.9 |
| 20260507013051 | 65 | 57 | 12.0 | 25.0 | 0.00 | 0.00 | 0.00 | 76 | 1019.3 |
| 20260507011511 | 64 | 134 | 8.0 | 20.0 | 0.00 | 0.00 | 0.00 | 77 | 1019.5 |
| 20260507010001 | 64 | 19 | 12.0 | 24.0 | 0.00 | 0.00 | 0.00 | 77 | 1020.0 |
| 20260507004540 | 64 | 49 | 11.0 | 19.0 | 0.00 | 0.00 | 0.00 | 78 | 1020.0 |
| 20260507003010 | 64 | 21 | 15.0 | 23.0 | 0.00 | 0.00 | 0.00 | 78 | 1020.4 |
| 20260507001557 | 64 | 58 | 15.0 | 28.0 | 0.00 | 0.00 | 0.00 | 78 | 1020.4 |
| 20260507000121 | 64 | 43 | 14.0 | 26.0 | 0.00 | 0.00 | 0.00 | 79 | 1020.6 |
| 20260506234600 | 64 | 43 | 11.0 | 26.0 | 0.00 | 0.00 | 0.00 | 79 | 1020.7 |
| 20260506233011 | 64 | 45 | 11.0 | 21.0 | 0.00 | 0.00 | 0.00 | 79 | 1020.9 |
| 20260506231519 | 64 | 32 | 13.0 | 26.0 | 0.00 | 0.00 | 0.00 | 80 | 1021.2 |
| 20260506224503 | 63 | 54 | 14.0 | 24.0 | 0.00 | 0.00 | 0.00 | 80 | 1021.3 |
| 20260506223058 | 63 | 38 | 12.0 | 21.0 | 0.00 | 0.00 | 0.00 | 80 | 1021.5 |
| 20260506221551 | 63 | 24 | 11.0 | 24.0 | 0.00 | 0.00 | 0.00 | 81 | 1021.7 |
| 20260506220006 | 62 | 60 | 11.0 | 23.0 | 0.00 | 0.00 | 0.00 | 81 | 1022.0 |
| 20260506214504 | 62 | 27 | 9.0 | 22.0 | 0.00 | 0.02 | 0.00 | 82 | 1022.3 |
| 20260506213012 | 62 | 47 | 11.0 | 21.0 | 0.00 | 0.02 | 0.00 | 82 | 1022.5 |
| 20260506210017 | 63 | 14 | 12.0 | 23.0 | 0.00 | 0.02 | 0.00 | 80 | 1022.6 |
| 20260506204516 | 62 | 44 | 11.0 | 24.0 | 0.00 | 0.02 | 0.00 | 82 | 1022.6 |
| 20260506203018 | 61 | 315 | 11.0 | 27.0 | 0.00 | 0.02 | 0.00 | 83 | 1022.6 |
| 20260506201556 | 61 | 52 | 11.0 | 19.0 | 0.00 | 0.02 | 0.00 | 82 | 1022.7 |
| 20260506200053 | 61 | 26 | 10.0 | 18.0 | 0.00 | 0.02 | 0.00 | 83 | 1022.6 |
| 20260506194525 | 61 | 43 | 9.0 | 17.0 | 0.00 | 0.02 | 0.00 | 83 | 1022.7 |
| 20260506193049 | 61 | 57 | 8.0 | 17.0 | 0.00 | 0.02 | 0.00 | 83 | 1022.8 |
| 20260506191512 | 61 | 131 | 7.0 | 20.0 | 0.00 | 0.02 | 0.00 | 83 | 1022.7 |
| 20260506190034 | 61 | 339 | 7.0 | 17.0 | 0.00 | 0.02 | 0.00 | 83 | 1022.7 |
| 20260506184546 | 61 | 14 | 8.0 | 15.0 | 0.00 | 0.02 | 0.00 | 83 | 1022.7 |
| 20260506184525 | 61 | 27 | 8.0 | 14.0 | 0.00 | 0.02 | 0.00 | 84 | 1022.7 |
| 20260506183027 | 61 | 84 | 10.0 | 18.0 | 0.00 | 0.02 | 0.00 | 84 | 1022.8 |
| 20260506181535 | 61 | 44 | 9.0 | 19.0 | 0.00 | 0.02 | 0.00 | 84 | 1022.9 |
| 20260506180036 | 61 | 26 | 13.0 | 19.0 | 0.00 | 0.02 | 0.00 | 83 | 1023.0 |
| 20260506174549 | 61 | 29 | 10.0 | 19.0 | 0.00 | 0.02 | 0.00 | 84 | 1023.2 |
| 20260506173048 | 61 | 40 | 7.0 | 16.0 | 0.00 | 0.02 | 0.00 | 85 | 1023.3 |
| 20260506171558 | 61 | 119 | 7.0 | 19.0 | 0.00 | 0.02 | 0.00 | 85 | 1023.3 |
| 20260506170019 | 61 | 26 | 7.0 | 15.0 | 0.00 | 0.02 | 0.00 | 85 | 1023.4 |
| 20260506164510 | 61 | 72 | 7.0 | 13.0 | 0.00 | 0.02 | 0.00 | 85 | 1023.6 |
| 20260506163051 | 61 | 46 | 10.0 | 15.0 | 0.00 | 0.02 | 0.00 | 85 | 1023.7 |
| 20260506161526 | 61 | 22 | 9.0 | 15.0 | 0.00 | 0.02 | 0.00 | 86 | 1023.8 |
| 20260506160025 | 61 | 27 | 8.0 | 20.0 | 0.00 | 0.02 | 0.00 | 87 | 1024.1 |
| 20260506154526 | 61 | 75 | 10.0 | 17.0 | 0.00 | 0.02 | 0.00 | 87 | 1024.2 |
| 20260506153025 | 61 | 43 | 8.0 | 16.0 | 0.00 | 0.02 | 0.00 | 89 | 1024.4 |
| 20260506151523 | 60 | 45 | 10.0 | 17.0 | 0.00 | 0.02 | 0.00 | 90 | 1024.6 |
| 20260506150021 | 60 | 6 | 9.0 | 18.0 | 0.00 | 0.02 | 0.00 | 90 | 1024.7 |
| 20260506144518 | 60 | 358 | 7.0 | 12.0 | 0.00 | 0.02 | 0.00 | 92 | 1025.0 |
| 20260506143024 | 60 | 85 | 7.0 | 13.0 | 0.00 | 0.02 | 0.00 | 93 | 1025.2 |
| 20260506141517 | 60 | 37 | 9.0 | 16.0 | 0.00 | 0.02 | 0.00 | 93 | 1025.4 |
| 20260506140019 | 60 | 45 | 6.0 | 15.0 | 0.00 | 0.02 | 0.00 | 94 | 1025.5 |
| 20260506134516 | 60 | 26 | 7.0 | 13.0 | 0.00 | 0.02 | 0.00 | 94 | 1025.6 |
| 20260506133013 | 60 | 52 | 7.0 | 14.0 | 0.00 | 0.02 | 0.00 | 93 | 1025.6 |
| 20260506131511 | 60 | 24 | 11.0 | 19.0 | 0.00 | 0.02 | 0.00 | 93 | 1025.7 |
| 20260506130011 | 61 | 15 | 7.0 | 17.0 | 0.00 | 0.02 | 0.00 | 92 | 1025.7 |
| 20260506124509 | 61 | 7 | 11.0 | 17.0 | 0.00 | 0.02 | 0.00 | 90 | 1025.7 |
| 20260506123009 | 61 | 337 | 10.0 | 19.0 | 0.00 | 0.02 | 0.00 | 91 | 1025.7 |
| 20260506121508 | 61 | 40 | 11.0 | 19.0 | 0.00 | 0.02 | 0.00 | 92 | 1025.7 |
| 20260506120007 | 61 | 5 | 14.0 | 23.0 | 0.00 | 0.02 | 0.00 | 93 | 1025.8 |
| 20260506114505 | 60 | 358 | 11.0 | 21.0 | 0.00 | 0.02 | 0.00 | 93 | 1025.7 |
| 20260506113003 | 61 | 8 | 12.0 | 17.0 | 0.00 | 0.02 | 0.00 | 92 | 1025.7 |
| 20260506111503 | 60 | 16 | 8.0 | 14.0 | 0.00 | 0.02 | 0.00 | 94 | 1025.8 |
| 20260506110100 | 61 | 9 | 11.0 | 18.0 | 0.00 | 0.02 | 0.00 | 94 | 1025.9 |
| 20260506104635 | 60 | 332 | 8.0 | 14.0 | 0.00 | 0.02 | 0.02 | 94 | 1026.0 |
| 20260506103103 | 60 | 341 | 8.0 | 16.0 | 0.00 | 0.02 | 0.02 | 94 | 1026.0 |
| 20260506101559 | 61 | 331 | 12.0 | 19.0 | 0.00 | 0.02 | 0.02 | 93 | 1025.9 |
| 20260506100058 | 61 | 345 | 8.0 | 20.0 | 0.00 | 0.02 | 0.02 | 93 | 1026.0 |
| 20260506094558 | 61 | 325 | 10.0 | 16.0 | 0.00 | 0.02 | 0.02 | 94 | 1026.0 |
| 20260506093056 | 61 | 12 | 11.0 | 17.0 | 0.00 | 0.02 | 0.02 | 94 | 1026.0 |
| 20260506091556 | 61 | 25 | 15.0 | 23.0 | 0.00 | 0.02 | 0.02 | 93 | 1026.0 |
| 20260506090053 | 61 | 344 | 14.0 | 20.0 | 0.00 | 0.02 | 0.02 | 93 | 1026.0 |
| 20260506084553 | 61 | 10 | 13.0 | 24.0 | 0.00 | 0.02 | 0.02 | 92 | 1026.1 |
| 20260506083052 | 62 | 7 | 12.0 | 22.0 | 0.00 | 0.02 | 0.02 | 90 | 1026.2 |
| 20260506081559 | 61 | 23 | 13.0 | 21.0 | 0.00 | 0.02 | 0.02 | 91 | 1026.3 |
| 20260506073052 | 61 | 2 | 12.0 | 22.0 | 0.00 | 0.02 | 0.02 | 92 | 1026.5 |
| 20260506071601 | 61 | 15 | 12.0 | 22.0 | 0.00 | 0.02 | 0.02 | 92 | 1026.6 |
| 20260506061544 | 61 | 15 | 12.0 | 21.0 | 0.00 | 0.02 | 0.02 | 91 | 1026.3 |
| 20260506044538 | 62 | 27 | 19.0 | 28.0 | 0.00 | 0.02 | 0.02 | 89 | 1026.4 |